THORAD DELTA 1 R/B(2), 9330

Orbit data source: Space-Track

THORAD DELTA 1 R/B(2), 9330 is space debris in HEO originally from a launch on Thu, 19 Dec 1974 UTC launched from the Air Force Eastern Test Range (AFETR). Debris objects in space refer to the collection of defunct objects orbiting the Earth. Examples of debris include non-operational satellites, rocket bodies, and fragments generated from explosions, collisions, or faulty payload assembly.

Loading next visibility...
Identifier
9330, 1974-101G
Orbit
HEO
Country
Flag of USUS
Related business
Manufacturer
Thiokol/TE
Mission
Spacecraft
Bus & Motor
STAR 37, Unknown motor
Mass
~83 kg wet, 83 kg dry
Launch date (UTC)
1974-12-19 (51 years ago)
Launch vehicle
Unknown
Launch site
Air Force Eastern Test Range (AFETR)
Object type
Payload
Rocket body
Debris
Shape & HBR
Unknown
Radar Cross Section
Large (>1 m²)

Expand to show TLE details & history
Last TLE update: 16 hours ago

TLE from 16 hours ago
0 THORAD DELTA 1 R/B(2)
1 09330U 74101G   25310.62109295  .00000128  00000-0  60087-3 0  9998
2 09330  13.1025  43.4534 7184098 107.2863 337.0578  2.31131833413899
Epoch: 2025-11-06T14:54Z
TLE epoch observation values (Epoch: 2025-11-06T14:54:22.430Z)
Latitude
0.00001°
Longitude
133.63736°
Altitude
8,564.635 km
Speed
6.07 km/s
True Right ascension
02h 53m 13s
True Declination
0° 00' 00"
Sunlit
Object was in full shadow at epoch
Visualization orbit readout
Latitude
Unknown
Longitude
Unknown
Altitude
Unknown
Speed
Unknown
Apparent Right ascension
Unknown
Apparent Declination
Unknown
Sunlit
N/A
Visualization observer readout
Local Sidereal Time
02:31:58
Azimuth
Unknown
Elevation
Unknown
Doppler factor
Unknown
Orbital elements
Apogee altitude
35,153.479 km
Perigee altitude
427.513 km
Semi-major axis
24,168.633 km
Eccentricity
0.71841
Inclination
13.1025°
RAAN
43.4534°
Arg. of periapsis
107.2863°
True anomaly
252.55456°
Mean anomaly
337.0578°
Eccentric anomaly
302.24364°
Mean motion
0.57765 °/min
Orbital period
623.21 mins
BSTAR
0.00060087
Loading maneuver chart data...
Computing Atmospheric mass density...
Loading historical data...
Loading historical data...
Loading historical data...
Loading historical data...
Loading historical data...
Loading historical data...
Loading historical data...

Documentation

Showing up to 5 results
|